Location: Grambois
(43.7619°N, 5.5873°E)
Time: 08:52:46
(UTC+00:00)

Cosmos 1356 Rocket - Pass Details

Date: 07 June 2020
Orbit: 543 x 598 km, 81.2° (Epoch: 15 July)

Event Time Altitude Azimuth Distance (km) Brightness Sun altitude
Rises 00:07:51 0° 340° (NNW) 2,819 8.0 -23.1°
Reaches altitude 10° 00:10:11 10° 332° (NNW) 1,921 6.8 -23.0°
Enters shadow 00:13:52 34° 272° (W) 983 4.5 -22.9°
